Location: Cactus School
(34.5700°N, 118.0931°W)
Time: 09:56:17
(UTC-07:00)

S-56A Canister/Altair - Pass Details

Date: 14 April 2024
Orbit: 638 x 2488 km, 38.9° (Epoch: 29 May)

Event Time Altitude Azimuth Distance (km) Brightness Sun altitude
Rises 21:00:41 0° 273° (W) 3,845 12.3 -19.4°
Reaches altitude 10° 21:03:01 10° 276° (W) 3,086 11.6 -19.9°
Maximum altitude 21:10:51 69° 359° (N) 1,653 9.2 -21.3°
Enters shadow 21:20:08 18° 79° (E) 3,780 10.6 -22.9°
Drops below altitude 10° 21:22:53 10° 82° (E) 4,587 - -23.4°
Sets 21:27:07 0° 85° (E) 5,808 - -24.1°
